Time,TemperatureF,DewpointF,PressureIn,WindDirection,WindDirectionDegrees,WindSpeedMPH,WindSpeedGustMPH,Humidity,HourlyPrecipIn,Conditions,Clouds,dailyrainin,SoftwareType,DateUTC
2013-07-28 00:02:00,62.0,60.0,30.03,North,0,0.0,5.0,94,0.00,,,0.73,,2013-07-28 04:02:00,
2013-07-28 00:12:00,62.0,59.0,30.03,West,262,1.0,5.0,91,0.00,,,0.73,,2013-07-28 04:12:00,
2013-07-28 00:22:00,63.0,59.0,30.02,WSW,244,2.0,6.0,86,0.00,,,0.73,,2013-07-28 04:22:00,
2013-07-28 00:32:00,63.0,59.0,30.02,WSW,244,2.0,6.0,86,0.00,,,0.73,,2013-07-28 04:32:00,
2013-07-28 00:43:00,63.0,58.0,30.02,SW,232,1.0,4.0,83,0.00,,,0.73,,2013-07-28 04:43:00,
2013-07-28 00:53:00,63.0,59.0,30.01,North,0,0.0,3.0,87,0.00,,,0.73,,2013-07-28 04:53:00,
2013-07-28 01:02:00,63.0,59.0,30.01,North,0,0.0,3.0,87,0.00,,,0.73,,2013-07-28 05:02:00,
2013-07-28 01:12:00,63.0,58.0,30.01,SW,230,1.0,7.0,85,0.00,,,0.73,,2013-07-28 05:12:00,
2013-07-28 01:22:00,64.0,59.0,30.01,North,0,0.0,7.0,84,0.00,,,0.73,,2013-07-28 05:22:00,
2013-07-28 01:32:00,64.0,59.0,30.01,North,0,0.0,7.0,84,0.00,,,0.73,,2013-07-28 05:32:00,
2013-07-28 01:43:00,63.0,59.0,30.01,North,0,0.0,4.0,87,0.00,,,0.73,,2013-07-28 05:43:00,
2013-07-28 01:52:00,63.0,58.0,30.01,WSW,251,1.0,6.0,85,0.00,,,0.73,,2013-07-28 05:52:00,
2013-07-28 02:02:00,63.0,58.0,30.01,WSW,251,1.0,6.0,85,0.00,,,0.73,,2013-07-28 06:02:00,
2013-07-28 02:12:00,63.0,58.0,30.01,SSW,208,2.0,10.0,83,0.00,,,0.73,,2013-07-28 06:12:00,
2013-07-28 02:22:00,63.0,59.0,30.01,North,0,0.0,4.0,88,0.00,,,0.73,,2013-07-28 06:22:00,
2013-07-28 02:32:00,63.0,59.0,30.01,North,0,0.0,4.0,88,0.00,,,0.73,,2013-07-28 06:32:00,
2013-07-28 02:43:00,63.0,59.0,30.01,West,269,3.0,11.0,86,0.00,,,0.73,,2013-07-28 06:43:00,
2013-07-28 02:52:00,62.0,59.0,30.01,SW,220,3.0,7.0,91,0.00,,,0.73,,2013-07-28 06:52:00,
2013-07-28 03:02:00,62.0,59.0,30.01,SW,220,3.0,7.0,91,0.00,,,0.73,,2013-07-28 07:02:00,
2013-07-28 03:12:00,61.0,58.0,30.00,West,277,1.0,7.0,91,0.00,,,0.73,,2013-07-28 07:12:00,
2013-07-28 03:23:00,62.0,59.0,30.00,West,266,1.0,6.0,91,0.00,,,0.73,,2013-07-28 07:23:00,
2013-07-28 03:32:00,62.0,59.0,30.00,West,266,1.0,6.0,91,0.00,,,0.73,,2013-07-28 07:32:00,
2013-07-28 03:43:00,63.0,60.0,30.00,WSW,245,4.0,9.0,89,0.00,,,0.73,,2013-07-28 07:43:00,
2013-07-28 03:53:00,63.0,60.0,29.99,SW,224,3.0,9.0,89,0.00,,,0.73,,2013-07-28 07:53:00,
2013-07-28 04:02:00,63.0,60.0,29.99,SW,224,3.0,9.0,89,0.00,,,0.73,,2013-07-28 08:02:00,
2013-07-28 04:12:00,63.0,60.0,30.00,West,273,4.0,10.0,91,0.00,,,0.72,,2013-07-28 08:12:00,
2013-07-28 04:22:00,62.0,60.0,30.00,WSW,255,3.0,11.0,92,0.00,,,0.69,,2013-07-28 08:22:00,
2013-07-28 04:33:00,62.0,60.0,30.00,WSW,255,3.0,11.0,92,0.00,,,0.69,,2013-07-28 08:33:00,
2013-07-28 04:42:00,62.0,60.0,30.00,WSW,256,4.0,11.0,92,0.00,,,0.67,,2013-07-28 08:42:00,
2013-07-28 04:53:00,62.0,60.0,30.00,SW,219,3.0,13.0,93,0.00,,,0.65,,2013-07-28 08:53:00,
2013-07-28 05:02:00,62.0,60.0,30.00,SW,219,3.0,13.0,93,0.00,,,0.65,,2013-07-28 09:02:00,
2013-07-28 05:12:00,62.0,60.0,30.00,West,274,5.0,17.0,92,0.00,,,0.62,,2013-07-28 09:12:00,
2013-07-28 05:22:00,62.0,59.0,30.00,West,276,8.0,13.0,90,0.00,,,0.61,,2013-07-28 09:22:00,
2013-07-28 05:32:00,62.0,59.0,30.00,West,276,8.0,13.0,90,0.00,,,0.61,,2013-07-28 09:32:00,
2013-07-28 05:43:00,63.0,60.0,30.00,WNW,283,5.0,11.0,90,0.00,,,0.61,,2013-07-28 09:43:00,
2013-07-28 05:53:00,63.0,59.0,30.00,West,279,6.0,13.0,88,0.00,,,0.61,,2013-07-28 09:53:00,
2013-07-28 06:02:00,63.0,59.0,30.00,West,279,6.0,13.0,88,0.00,,,0.61,,2013-07-28 10:02:00,
2013-07-28 06:12:00,62.0,59.0,30.01,West,278,1.0,8.0,91,0.00,,,0.61,,2013-07-28 10:12:00,
2013-07-28 06:22:00,62.0,59.0,30.01,WNW,286,1.0,9.0,90,0.00,,,0.59,,2013-07-28 10:22:00,
2013-07-28 06:33:00,62.0,59.0,30.01,WNW,286,1.0,9.0,90,0.00,,,0.59,,2013-07-28 10:33:00,
2013-07-28 06:42:00,63.0,60.0,30.02,West,281,3.0,10.0,89,0.00,,,0.57,,2013-07-28 10:42:00,
2013-07-28 06:52:00,63.0,60.0,30.02,West,281,3.0,10.0,89,0.00,,,0.57,,2013-07-28 10:52:00,
2013-07-28 07:12:00,63.0,60.0,30.02,West,281,5.0,13.0,89,0.00,,,0.52,,2013-07-28 11:12:00,
2013-07-28 07:22:00,63.0,59.0,30.02,WNW,298,2.0,9.0,88,0.00,,,0.48,,2013-07-28 11:22:00,
2013-07-28 07:33:00,63.0,59.0,30.02,WNW,298,2.0,9.0,88,0.00,,,0.48,,2013-07-28 11:33:00,
2013-07-28 07:43:00,64.0,60.0,30.03,West,271,5.0,12.0,86,0.00,,,0.44,,2013-07-28 11:43:00,
2013-07-28 07:53:00,63.0,59.0,30.03,West,280,4.0,9.0,88,0.00,,,0.39,,2013-07-28 11:53:00,
2013-07-28 08:02:00,63.0,59.0,30.03,West,280,4.0,9.0,88,0.00,,,0.39,,2013-07-28 12:02:00,
2013-07-28 08:12:00,63.0,60.0,30.04,West,273,5.0,11.0,89,0.00,,,0.37,,2013-07-28 12:12:00,
2013-07-28 08:22:00,64.0,60.0,30.04,NW,314,4.0,14.0,88,0.00,,,0.34,,2013-07-28 12:22:00,
2013-07-28 08:33:00,64.0,60.0,30.04,NW,314,4.0,14.0,88,0.00,,,0.34,,2013-07-28 12:33:00,
2013-07-28 08:43:00,63.0,60.0,30.04,WNW,284,5.0,13.0,90,0.00,,,0.32,,2013-07-28 12:43:00,
2013-07-28 08:53:00,63.0,60.0,30.04,West,261,4.0,11.0,90,0.00,,,0.30,,2013-07-28 12:53:00,
2013-07-28 09:02:00,63.0,60.0,30.04,West,261,4.0,11.0,90,0.00,,,0.30,,2013-07-28 13:02:00,
2013-07-28 09:12:00,63.0,60.0,30.04,WNW,300,3.0,12.0,89,0.00,,,0.30,,2013-07-28 13:12:00,
2013-07-28 09:22:00,63.0,60.0,30.05,WNW,296,2.0,8.0,89,0.00,,,0.30,,2013-07-28 13:22:00,
2013-07-28 09:32:00,63.0,60.0,30.05,WNW,296,2.0,8.0,89,0.00,,,0.30,,2013-07-28 13:32:00,
2013-07-28 09:43:00,64.0,60.0,30.05,WNW,282,2.0,7.0,87,0.00,,,0.30,,2013-07-28 13:43:00,
2013-07-28 09:52:00,65.0,61.0,30.05,West,273,2.0,8.0,86,0.00,,,0.30,,2013-07-28 13:52:00,
2013-07-28 10:02:00,65.0,61.0,30.05,West,273,2.0,8.0,86,0.00,,,0.30,,2013-07-28 14:02:00,
2013-07-28 10:12:00,65.0,60.0,30.04,WNW,287,1.0,7.0,83,0.00,,,0.30,,2013-07-28 14:12:00,
2013-07-28 10:23:00,65.0,59.0,30.04,NW,320,1.0,6.0,82,0.00,,,0.29,,2013-07-28 14:23:00,
2013-07-28 10:33:00,65.0,59.0,30.04,NW,320,1.0,6.0,82,0.00,,,0.29,,2013-07-28 14:33:00,
2013-07-28 10:43:00,66.0,60.0,30.04,West,275,2.0,8.0,80,0.00,,,0.29,,2013-07-28 14:43:00,
2013-07-28 10:53:00,66.0,60.0,30.05,West,275,1.0,8.0,82,0.00,,,0.29,,2013-07-28 14:53:00,
2013-07-28 11:03:00,66.0,60.0,30.05,West,275,1.0,8.0,82,0.00,,,0.29,,2013-07-28 15:03:00,
2013-07-28 11:13:00,65.0,59.0,30.04,WNW,285,1.0,6.0,81,0.00,,,0.29,,2013-07-28 15:13:00,
2013-07-28 11:22:00,65.0,59.0,30.05,West,278,2.0,10.0,81,0.00,,,0.29,,2013-07-28 15:22:00,
2013-07-28 11:32:00,65.0,59.0,30.05,West,278,2.0,10.0,81,0.00,,,0.29,,2013-07-28 15:32:00,
2013-07-28 11:43:00,66.0,59.0,30.05,West,271,3.0,9.0,79,0.00,,,0.29,,2013-07-28 15:43:00,
2013-07-28 11:53:00,65.0,60.0,30.05,WNW,285,4.0,9.0,83,0.00,,,0.29,,2013-07-28 15:53:00,
2013-07-28 12:03:00,65.0,60.0,30.05,WNW,285,4.0,9.0,83,0.00,,,0.29,,2013-07-28 16:03:00,
2013-07-28 12:12:00,65.0,58.0,30.05,West,273,3.0,9.0,77,0.00,,,0.28,,2013-07-28 16:12:00,
2013-07-28 12:22:00,65.0,57.0,30.05,West,270,1.0,8.0,75,0.00,,,0.27,,2013-07-28 16:22:00,
2013-07-28 12:33:00,65.0,57.0,30.05,West,270,1.0,8.0,75,0.00,,,0.27,,2013-07-28 16:33:00,
2013-07-28 12:43:00,66.0,57.0,30.05,North,0,0.0,5.0,74,0.00,,,0.25,,2013-07-28 16:43:00,
2013-07-28 12:52:00,66.0,57.0,30.06,WNW,289,1.0,9.0,72,0.00,,,0.23,,2013-07-28 16:52:00,
2013-07-28 13:02:00,66.0,57.0,30.06,WNW,289,1.0,9.0,72,0.00,,,0.23,,2013-07-28 17:02:00,
2013-07-28 13:13:00,66.0,58.0,30.06,West,277,2.0,6.0,76,0.00,,,0.21,,2013-07-28 17:13:00,
2013-07-28 13:23:00,67.0,60.0,30.06,West,281,2.0,11.0,78,0.00,,,0.19,,2013-07-28 17:23:00,
2013-07-28 13:32:00,67.0,60.0,30.06,West,281,2.0,11.0,78,0.00,,,0.19,,2013-07-28 17:32:00,
2013-07-28 13:43:00,66.0,60.0,30.06,West,272,4.0,11.0,80,0.00,,,0.19,,2013-07-28 17:43:00,
2013-07-28 13:53:00,67.0,61.0,30.06,WNW,301,3.0,8.0,80,0.00,,,0.18,,2013-07-28 17:53:00,
2013-07-28 14:03:00,67.0,61.0,30.06,WNW,301,3.0,8.0,80,0.00,,,0.18,,2013-07-28 18:03:00,
2013-07-28 14:13:00,69.0,61.0,30.05,WNW,282,3.0,7.0,77,0.00,,,0.14,,2013-07-28 18:13:00,
2013-07-28 14:22:00,68.0,60.0,30.05,WNW,288,2.0,8.0,76,0.00,,,0.09,,2013-07-28 18:22:00,
2013-07-28 14:33:00,68.0,60.0,30.05,WNW,288,2.0,8.0,76,0.00,,,0.09,,2013-07-28 18:33:00,
2013-07-28 14:43:00,69.0,61.0,30.05,West,272,2.0,8.0,76,0.00,,,0.03,,2013-07-28 18:43:00,
2013-07-28 14:52:00,71.0,61.0,30.04,West,277,5.0,10.0,71,0.00,,,0.01,,2013-07-28 18:52:00,
2013-07-28 15:02:00,71.0,61.0,30.04,West,277,5.0,10.0,71,0.00,,,0.01,,2013-07-28 19:02:00,
2013-07-28 15:12:00,71.0,61.0,30.04,West,281,4.0,9.0,70,0.00,,,0.00,,2013-07-28 19:12:00,
2013-07-28 15:22:00,73.0,62.0,30.03,South,185,3.0,7.0,69,0.00,,,0.00,,2013-07-28 19:22:00,
2013-07-28 15:33:00,73.0,62.0,30.03,South,185,3.0,7.0,69,0.00,,,0.00,,2013-07-28 19:33:00,
2013-07-28 15:43:00,73.0,63.0,30.03,SW,236,2.0,9.0,71,0.00,,,0.00,,2013-07-28 19:43:00,
2013-07-28 15:52:00,73.0,63.0,30.03,SSW,199,1.0,7.0,71,0.00,,,0.00,,2013-07-28 19:52:00,
2013-07-28 16:03:00,73.0,63.0,30.03,SSW,199,1.0,7.0,71,0.00,,,0.00,,2013-07-28 20:03:00,
2013-07-28 16:13:00,73.0,64.0,30.02,SSW,204,1.0,8.0,73,0.00,,,0.00,,2013-07-28 20:13:00,
2013-07-28 16:23:00,71.0,62.0,30.03,NW,306,4.0,8.0,72,0.00,,,0.00,,2013-07-28 20:23:00,
2013-07-28 16:33:00,71.0,62.0,30.03,NW,306,4.0,8.0,72,0.00,,,0.00,,2013-07-28 20:33:00,
2013-07-28 16:43:00,72.0,63.0,30.03,WNW,301,3.0,7.0,73,0.00,,,0.00,,2013-07-28 20:43:00,
2013-07-28 16:52:00,73.0,64.0,30.02,North,0,0.0,6.0,73,0.00,,,0.00,,2013-07-28 20:52:00,
2013-07-28 17:03:00,73.0,64.0,30.02,North,0,0.0,6.0,73,0.00,,,0.00,,2013-07-28 21:03:00,
2013-07-28 17:13:00,73.0,63.0,30.02,NW,316,1.0,7.0,72,0.00,,,0.00,,2013-07-28 21:13:00,
2013-07-28 17:22:00,73.0,63.0,30.02,NW,321,1.0,6.0,72,0.00,,,0.00,,2013-07-28 21:22:00,
2013-07-28 17:33:00,73.0,63.0,30.02,NW,321,1.0,6.0,72,0.00,,,0.00,,2013-07-28 21:33:00,
2013-07-28 17:44:00,73.0,65.0,30.02,North,0,0.0,5.0,76,0.00,,,0.00,,2013-07-28 21:44:00,
2013-07-28 17:52:00,72.0,63.0,30.02,North,0,0.0,4.0,74,0.00,,,0.00,,2013-07-28 21:52:00,
2013-07-28 18:02:00,72.0,63.0,30.02,North,0,0.0,4.0,74,0.00,,,0.00,,2013-07-28 22:02:00,
2013-07-28 18:12:00,71.0,62.0,30.03,North,0,0.0,4.0,74,0.00,,,0.00,,2013-07-28 22:12:00,
2013-07-28 18:22:00,73.0,63.0,30.04,West,277,1.0,8.0,71,0.00,,,0.00,,2013-07-28 22:22:00,
2013-07-28 18:32:00,73.0,63.0,30.04,West,277,1.0,8.0,71,0.00,,,0.00,,2013-07-28 22:32:00,
2013-07-28 18:43:00,72.0,64.0,30.03,North,0,0.0,4.0,76,0.00,,,0.00,,2013-07-28 22:43:00,
2013-07-28 18:52:00,74.0,64.0,30.03,North,0,0.0,3.0,71,0.00,,,0.00,,2013-07-28 22:52:00,
2013-07-28 19:03:00,74.0,64.0,30.03,North,0,0.0,3.0,71,0.00,,,0.00,,2013-07-28 23:03:00,
2013-07-28 19:12:00,73.0,63.0,30.03,WSW,244,1.0,6.0,71,0.00,,,0.00,,2013-07-28 23:12:00,
2013-07-28 19:22:00,73.0,63.0,30.04,North,0,0.0,2.0,72,0.00,,,0.00,,2013-07-28 23:22:00,
2013-07-28 19:32:00,73.0,63.0,30.04,North,0,0.0,2.0,72,0.00,,,0.00,,2013-07-28 23:32:00,
2013-07-28 19:43:00,73.0,64.0,30.04,North,0,0.0,3.0,74,0.00,,,0.00,,2013-07-28 23:43:00,
2013-07-28 19:53:00,73.0,63.0,30.04,NW,317,1.0,4.0,70,0.00,,,0.00,,2013-07-28 23:53:00,
2013-07-28 20:03:00,73.0,63.0,30.04,NW,317,1.0,4.0,70,0.00,,,0.00,,2013-07-29 00:03:00,
2013-07-28 20:22:00,70.0,64.0,30.06,North,0,0.0,1.0,81,0.00,,,0.00,,2013-07-29 00:22:00,
2013-07-28 20:32:00,70.0,64.0,30.06,North,0,0.0,1.0,81,0.00,,,0.00,,2013-07-29 00:32:00,
2013-07-28 20:43:00,67.0,61.0,30.06,North,3,2.0,5.0,81,0.00,,,0.00,,2013-07-29 00:43:00,
2013-07-28 20:52:00,67.0,61.0,30.07,North,0,0.0,3.0,81,0.00,,,0.00,,2013-07-29 00:52:00,
2013-07-28 21:02:00,67.0,61.0,30.07,North,0,0.0,3.0,81,0.00,,,0.00,,2013-07-29 01:02:00,
2013-07-28 21:14:00,67.0,61.0,30.07,North,0,0.0,4.0,80,0.00,,,0.00,,2013-07-29 01:14:00,
2013-07-28 21:28:00,67.0,61.0,30.07,North,0,0.0,4.0,80,0.00,,,0.00,,2013-07-29 01:28:00,
2013-07-28 21:36:00,66.0,61.0,30.08,North,0,0.0,1.0,83,0.00,,,0.00,,2013-07-29 01:36:00,
2013-07-28 21:45:00,65.0,61.0,30.08,North,0,0.0,1.0,87,0.00,,,0.00,,2013-07-29 01:45:00,
2013-07-28 21:57:00,63.0,60.0,30.09,North,0,0.0,1.0,89,0.00,,,0.00,,2013-07-29 01:57:00,
2013-07-28 22:06:00,63.0,60.0,30.09,North,0,0.0,1.0,89,0.00,,,0.00,,2013-07-29 02:06:00,
2013-07-28 22:14:00,64.0,60.0,30.09,North,0,0.0,3.0,87,0.00,,,0.00,,2013-07-29 02:14:00,
2013-07-28 22:25:00,64.0,60.0,30.10,North,0,0.0,3.0,86,0.00,,,0.00,,2013-07-29 02:25:00,
2013-07-28 22:47:00,64.0,60.0,30.10,North,0,0.0,4.0,86,0.00,,,0.00,,2013-07-29 02:47:00,
2013-07-28 23:04:00,64.0,59.0,30.10,NNW,335,1.0,4.0,85,0.00,,,0.00,,2013-07-29 03:04:00,
2013-07-28 23:17:00,64.0,59.0,30.10,NW,325,1.0,7.0,85,0.00,,,0.00,,2013-07-29 03:17:00,
2013-07-28 23:24:00,64.0,59.0,30.10,NNW,335,1.0,4.0,85,0.00,,,0.00,,2013-07-29 03:24:00,
2013-07-28 23:36:00,64.0,59.0,30.10,NNW,335,1.0,4.0,85,0.00,,,0.00,,2013-07-29 03:36:00,
2013-07-28 23:48:00,64.0,59.0,30.10,WNW,294,2.0,8.0,85,0.00,,,0.00,,2013-07-29 03:48:00,